Wind_Speed
57 60 62 64 66 69 74 77 82 88 91 93 95 97 99 100 95 82 68 60 57 52 47 50 48 48 51 51 55 55 54 54 55 50 48 44 46 49 48 47 47 45 41
61 63 65 67 69 73 76 81 86 88 91 95 97 98 98 92 77 62 54 45 35 36 40 46 47 48 53 51 52 51 47 47 49 47 44 43 45 46 50 51 50 49 46
63 64 65 68 72 75 79 84 86 90 93 98 100 97 89 74 56 47 36 30 34 40 44 46 47 52 48 48 44 42 43 46 49 50 44 43 40 43 46 48 50 52 51
62 64 67 72 75 78 83 85 88 91 97 99 94 86 71 54 41 33 34 35 38 44 49 49 53 50 49 43 41 44 47 49 51 51 49 47 45 42 42 46 48 50 53
62 66 71 74 79 81 83 87 90 95 96 92 85 70 55 43 36 35 37 39 41 46 52 51 53 50 46 41 43 45 45 47 46 45 44 44 43 43 42 44 47 47 52
64 69 74 78 80 82 86 88 95 97 92 85 71 56 44 37 34 36 39 40 44 48 49 53 49 46 40 41 42 46 48 48 44 39 36 38 39 43 44 43 45 46 46
69 73 76 79 81 85 89 95 97 90 83 72 58 46 38 34 37 38 39 41 44 49 47 52 46 40 37 38 42 46 47 45 40 34 30 34 36 36 36 37 40 43 43
73 75 79 81 84 87 93 94 90 83 72 61 47 38 34 34 38 37 38 40 45 47 48 48 44 35 35 37 43 45 45 41 37 30 29 26 26 24 24 28 33 35 36
75 80 82 83 85 92 92 88 83 72 62 50 39 34 34 35 36 35 37 40 44 44 47 43 40 33 34 37 43 42 41 37 33 26 22 19 18 20 21 22 25 30 30
79 80 81 84 91 92 87 83 72 63 53 41 35 33 33 33 34 36 38 40 39 42 45 39 36 31 31 35 41 40 39 34 29 22 16 13 11 19 21 19 21 25 29
79 80 83 91 93 87 81 72 63 54 44 36 34 34 34 35 35 36 37 39 38 42 42 34 32 28 28 34 38 37 37 32 29 20 12 8 5 9 15 16 17 21 26
78 81 90 92 88 80 71 62 53 46 37 34 34 34 33 33 33 35 36 37 39 41 39 32 29 25 25 29 34 33 34 31 27 21 14 9 5 3 6 10 14 18 24
80 89 90 88 80 70 62 53 46 39 34 33 33 32 30 31 33 34 35 38 40 40 38 31 27 22 23 26 30 29 29 27 24 21 15 11 9 7 7 10 14 18 21
87 89 88 81 69 62 54 46 40 36 33 32 30 29 30 31 32 33 36 37 39 38 37 30 26 21 20 22 25 25 25 24 22 18 15 11 8 7 8 10 13 16 19
86 85 79 68 62 56 46 39 36 32 29 29 30 30 30 30 31 34 36 36 36 36 35 29 24 23 19 19 19 21 20 20 19 17 14 11 9 7 8 9 11 14 16
82 76 67 62 59 50 40 35 32 32 32 30 30 28 28 30 33 34 34 35 35 34 33 27 22 23 19 17 16 18 17 16 14 14 14 11 8 5 4 6 8 10 11
74 67 62 60 54 44 37 33 31 32 32 29 27 26 28 31 32 32 34 34 33 32 30 25 21 21 20 17 16 14 15 14 11 10 9 10 10 9 7 5 7 9 9
67 63 59 57 48 40 35 32 31 30 29 26 25 27 29 30 31 32 32 32 32 31 28 24 20 20 20 18 16 15 12 12 11 8 7 5 6 7 8 9 9 9 10
65 59 56 51 42 37 33 30 29 27 24 22 25 28 29 30 30 32 30 31 30 29 27 23 20 19 19 19 17 16 16 14 11 10 9 7 3 0 2 5 6 6 6
60 55 52 45 38 34 30 26 25 24 23 24 28 30 29 29 30 30 29 29 29 28 27 25 22 20 20 20 19 17 16 18 16 13 12 11 10 9 6 6 6 7 7
55 51 47 40 34 31 28 25 24 25 26 27 28 29 29 29 29 29 27 27 28 28 27 28 26 25 23 22 20 20 18 17 20 20 18 15 15 14 13 13 12 12 12
50 46 41 35 31 29 28 25 25 26 28 29 30 29 29 28 28 28 27 24 25 27 28 28 29 29 27 25 23 22 21 21 20 21 25 23 20 18 18 18 19 19 18
44 41 37 33 30 28 27 25 27 28 29 29 28 28 28 28 28 28 27 24 24 24 25 27 29 31 30 28 26 24 22 21 21 22 23 27 29 27 23 21 22 22 23
41 37 34 31 29 28 26 26 26 27 28 29 31 31 30 30 29 29 28 26 24 24 23 24 27 29 32 33 29 27 24 22 21 21 23 25 27 33 33 30 27 25 25
39 35 33 31 31 31 32 32 33 33 33 32 33 34 33 32 31 30 29 28 26 25 24 24 25 28 30 34 35 31 27 24 21 21 22 23 25 27 31 37 37 34 32
39 36 34 33 33 34 35 36 37 37 37 37 36 35 35 33 31 30 30 29 28 26 25 25 25 26 30 31 35 35 30 25 20 19 19 20 21 23 26 29 33 37 38
Wind_Direction
307 308 309 310 312 313 313 313 314 315 314 312 312 312 312 312 313 310 307 306 303 305 309 309 307 305 303 301 300 297 296 294 291 288 284 274 264 261 258 257 257 256 254
308 309 311 312 312 312 313 314 315 313 312 314 314 314 315 315 313 311 312 309 313 316 312 307 308 308 306 304 302 300 297 295 294 293 290 283 272 260 255 253 252 251 250
307 309 310 311 311 312 313 315 314 313 316 316 316 316 316 315 313 313 313 317 316 315 315 314 311 313 308 307 303 301 299 296 293 291 287 284 281 270 258 252 247 246 245
308 310 311 312 312 313 315 315 314 316 317 317 318 318 317 315 314 314 316 315 316 319 320 317 316 315 315 312 310 307 303 298 293 289 285 279 275 272 262 252 246 240 240
310 311 313 313 313 315 315 315 317 317 318 319 319 318 315 313 311 310 312 315 316 318 319 319 320 318 316 314 313 311 310 306 299 291 284 278 272 267 264 251 245 241 237
311 312 312 314 315 315 315 316 317 319 320 320 319 316 313 311 311 312 310 312 315 318 318 321 319 318 316 317 317 318 315 313 306 298 287 278 272 268 262 249 240 238 237
312 313 314 315 316 317 317 317 319 321 321 320 318 314 312 312 313 310 310 311 316 317 318 322 320 317 318 318 322 322 320 316 313 303 292 284 278 268 255 243 238 234 233
312 313 316 317 318 317 318 319 321 322 321 320 316 313 310 310 313 312 311 313 316 319 321 321 322 318 321 324 328 327 326 322 318 308 297 289 277 253 245 239 235 231 233
315 317 318 319 318 318 319 321 322 321 321 318 314 311 310 309 314 315 315 315 318 320 325 321 323 321 323 328 332 332 332 329 326 317 304 292 270 241 239 235 230 224 225
318 318 318 318 319 320 322 322 321 321 320 316 313 308 309 314 319 319 318 317 319 325 327 322 322 322 325 332 335 338 341 340 338 329 320 302 269 237 237 235 227 218 221
319 318 318 320 320 323 322 321 320 320 318 315 311 308 309 313 317 318 318 320 323 325 328 324 322 321 326 335 339 342 346 350 351 346 340 319 287 245 236 223 218 216 222
318 319 320 320 322 322 321 321 320 319 316 313 311 312 311 315 319 320 322 323 324 326 329 327 324 319 326 333 341 345 351 355 359 0 3 359 337 280 227 217 213 206 196
319 320 320 321 322 321 321 320 319 318 315 313 313 315 316 317 321 324 324 324 325 328 332 329 326 318 323 332 342 348 352 360 3 9 15 29 44 74 120 150 163 171 177
320 319 320 322 321 321 321 320 321 319 316 315 316 318 318 319 324 326 325 325 327 330 333 331 327 319 322 325 338 349 353 360 7 11 18 34 61 95 122 142 153 162 170
319 320 321 321 321 322 321 319 319 319 318 316 318 319 320 322 325 325 326 328 330 331 333 332 326 327 316 321 332 348 351 358 8 19 22 30 51 83 117 137 152 163 172
320 321 321 321 321 321 320 316 316 318 318 317 316 319 322 324 325 326 329 331 332 331 333 332 327 328 315 314 321 335 350 353 5 23 31 35 46 64 98 129 148 165 177
321 321 321 321 321 320 317 313 312 314 315 316 318 324 326 326 326 329 331 333 333 333 334 333 328 328 324 305 310 318 332 341 351 5 27 37 51 67 85 125 158 166 165
320 322 321 322 320 318 315 314 314 313 315 315 320 327 329 328 328 330 333 335 336 336 338 335 327 326 332 323 300 299 303 318 323 325 340 8 41 62 80 94 108 124 138
320 322 322 320 316 315 313 315 315 315 314 315 320 326 327 328 328 328 333 337 339 340 341 338 333 325 323 327 322 294 288 290 296 295 288 289 297 95 116 125 136 148 159
321 321 321 319 314 312 309 314 315 315 314 314 317 319 322 326 325 326 331 335 342 341 341 344 341 336 330 321 319 316 289 274 276 279 276 266 261 252 229 211 199 189 192
320 321 321 318 314 311 304 308 310 312 314 315 315 316 320 322 321 322 326 331 340 343 345 346 344 339 331 320 314 305 305 295 269 263 265 265 261 253 247 236 229 225 220
319 320 320 318 315 312 306 303 305 307 310 311 311 311 315 317 317 315 318 323 331 340 344 347 347 344 339 332 321 308 296 288 285 269 255 253 254 253 248 243 240 236 233
317 318 319 318 316 316 313 308 305 306 308 310 311 313 313 313 312 312 311 312 317 326 336 343 349 352 348 342 333 322 309 294 281 271 264 253 247 248 246 244 242 240 240
313 313 317 317 313 311 311 312 310 310 312 314 316 316 311 309 307 308 306 305 305 312 319 332 340 343 348 349 342 332 321 310 297 281 268 260 252 246 245 244 242 243 241
309 306 310 310 307 304 305 305 306 307 308 310 311 311 311 306 302 302 305 302 300 302 308 317 325 335 337 344 347 341 332 320 306 293 281 270 262 255 249 245 245 244 243
305 301 301 303 304 303 302 302 303 303 303 304 303 302 302 302 297 295 297 300 298 297 299 304 313 325 331 334 341 344 340 332 319 308 297 285 275 266 260 255 250 248 247
Height
5692 5685 5679 5671 5663 5653 5642 5631 5621 5608 5595 5581 5568 5554 5536 5519 5502 5488 5476 5469 5461 5455 5450 5445 5440 5434 5429 5422 5415 5409 5402 5395 5390 5392 5391 5394 5396 5396 5398 5401 5404 5408 5414
5681 5673 5665 5657 5648 5638 5628 5616 5605 5593 5578 5561 5545 5529 5513 5497 5481 5470 5463 5455 5451 5446 5441 5437 5431 5424 5417 5408 5401 5394 5388 5383 5376 5374 5376 5376 5376 5378 5380 5384 5388 5392 5399
5669 5661 5653 5644 5635 5624 5614 5602 5589 5575 5559 5543 5525 5508 5493 5478 5467 5459 5453 5448 5444 5439 5433 5427 5420 5412 5404 5396 5388 5382 5377 5372 5365 5359 5362 5359 5360 5361 5363 5366 5371 5375 5382
5657 5649 5640 5631 5621 5610 5599 5586 5571 5554 5539 5523 5505 5489 5475 5465 5458 5452 5447 5441 5436 5430 5422 5415 5408 5398 5390 5383 5377 5371 5364 5358 5351 5345 5343 5343 5343 5344 5346 5349 5354 5360 5366
5645 5637 5627 5618 5606 5594 5582 5568 5552 5535 5519 5503 5488 5473 5462 5455 5450 5445 5439 5433 5428 5421 5413 5405 5396 5387 5378 5372 5366 5359 5351 5343 5335 5329 5325 5324 5325 5327 5330 5332 5338 5345 5352
5633 5624 5614 5603 5590 5577 5563 5549 5533 5515 5498 5484 5470 5460 5452 5446 5441 5437 5431 5425 5419 5412 5404 5396 5387 5377 5370 5363 5355 5347 5337 5328 5320 5314 5311 5308 5308 5310 5312 5316 5322 5330 5339
5620 5609 5598 5585 5573 5558 5543 5527 5511 5496 5480 5467 5456 5448 5442 5438 5433 5428 5422 5417 5411 5403 5395 5386 5378 5369 5362 5355 5347 5337 5327 5316 5307 5301 5298 5296 5294 5292 5295 5303 5308 5316 5326
5604 5593 5581 5569 5555 5539 5523 5506 5491 5477 5465 5454 5445 5439 5434 5430 5425 5420 5414 5409 5403 5395 5386 5377 5369 5361 5355 5348 5339 5329 5317 5306 5297 5290 5286 5284 5282 5282 5287 5292 5298 5308 5317
5588 5577 5564 5550 5537 5521 5504 5489 5475 5462 5451 5442 5436 5431 5427 5423 5418 5412 5407 5401 5395 5387 5378 5369 5361 5354 5348 5341 5332 5322 5311 5299 5289 5282 5278 5276 5275 5277 5281 5286 5292 5300 5308
5572 5559 5546 5532 5518 5503 5486 5473 5460 5449 5439 5432 5427 5423 5419 5415 5410 5404 5399 5394 5387 5380 5371 5361 5354 5348 5343 5336 5327 5317 5306 5295 5286 5278 5274 5271 5271 5273 5277 5282 5287 5294 5301
5555 5543 5529 5515 5500 5485 5472 5458 5447 5438 5430 5425 5420 5416 5412 5408 5403 5398 5392 5386 5380 5372 5365 5356 5348 5343 5338 5332 5324 5314 5304 5294 5285 5278 5273 5271 5270 5271 5274 5279 5284 5290 5295
5540 5528 5513 5497 5483 5470 5457 5446 5436 5429 5422 5417 5413 5409 5405 5401 5396 5391 5385 5378 5372 5365 5358 5350 5343 5339 5334 5329 5322 5314 5304 5295 5287 5281 5276 5272 5271 5272 5274 5277 5281 5285 5290
5525 5511 5496 5482 5469 5456 5445 5436 5428 5421 5415 5410 5406 5402 5398 5394 5389 5384 5378 5372 5365 5358 5351 5344 5339 5335 5331 5326 5321 5313 5306 5298 5291 5285 5281 5277 5276 5275 5276 5279 5282 5287 5292
5508 5493 5480 5468 5455 5444 5434 5425 5419 5413 5408 5403 5399 5396 5392 5387 5383 5378 5372 5366 5359 5352 5345 5339 5335 5331 5328 5325 5320 5314 5308 5301 5295 5290 5286 5283 5281 5281 5281 5283 5287 5291 5296
5491 5477 5465 5454 5443 5433 5424 5417 5412 5407 5402 5398 5393 5389 5385 5381 5377 5372 5366 5360 5353 5347 5340 5335 5331 5327 5324 5322 5318 5314 5309 5304 5299 5295 5291 5288 5287 5286 5286 5288 5291 5294 5298
5477 5463 5451 5441 5432 5423 5416 5410 5405 5401 5396 5392 5388 5384 5380 5376 5371 5366 5360 5354 5348 5342 5336 5331 5327 5323 5321 5319 5316 5313 5310 5306 5303 5299 5295 5293 5291 5290 5290 5291 5293 5295 5298
5462 5451 5439 5430 5421 5414 5408 5403 5399 5394 5389 5386 5382 5378 5375 5371 5366 5361 5355 5349 5343 5337 5332 5327 5324 5321 5318 5315 5314 5311 5309 5307 5304 5302 5299 5297 5295 5294 5294 5294 5295 5296 5298
5449 5438 5428 5418 5411 5405 5400 5395 5391 5388 5383 5379 5376 5373 5369 5365 5360 5356 5351 5345 5339 5333 5328 5324 5321 5318 5315 5312 5310 5309 5307 5306 5304 5303 5301 5300 5299 5298 5297 5298 5298 5300 5302
5437 5426 5417 5409 5402 5397 5393 5389 5384 5381 5377 5375 5371 5368 5364 5360 5356 5352 5347 5342 5336 5330 5325 5321 5318 5315 5312 5309 5306 5304 5304 5303 5302 5301 5301 5300 5300 5300 5300 5300 5301 5302 5303
5425 5415 5408 5400 5394 5390 5386 5383 5379 5375 5372 5369 5366 5362 5359 5355 5351 5347 5343 5338 5333 5327 5323 5318 5314 5311 5308 5305 5302 5300 5299 5298 5298 5298 5298 5297 5298 5298 5299 5299 5300 5301 5303
5414 5406 5399 5392 5386 5382 5379 5376 5373 5370 5367 5363 5360 5356 5353 5349 5346 5342 5339 5334 5330 5325 5320 5315 5310 5307 5303 5300 5298 5295 5294 5292 5291 5292 5293 5293 5293 5294 5295 5296 5297 5298 5300
5404 5397 5391 5384 5379 5375 5372 5369 5367 5364 5361 5357 5354 5350 5346 5343 5340 5337 5334 5330 5326 5322 5317 5312 5307 5303 5299 5295 5291 5289 5287 5286 5285 5284 5285 5286 5287 5288 5289 5290 5291 5293 5294
5395 5389 5383 5377 5373 5369 5365 5362 5359 5356 5353 5350 5347 5343 5339 5336 5333 5331 5328 5325 5322 5318 5314 5310 5305 5300 5295 5290 5286 5282 5279 5277 5276 5276 5276 5277 5278 5280 5282 5283 5284 5286 5287
5385 5380 5375 5370 5366 5363 5359 5356 5353 5350 5347 5343 5339 5335 5332 5329 5326 5324 5321 5319 5316 5313 5310 5306 5302 5297 5293 5287 5282 5277 5273 5270 5268 5267 5267 5267 5268 5270 5272 5274 5276 5277 5279
5376 5371 5367 5363 5359 5356 5352 5349 5345 5342 5338 5335 5331 5327 5324 5321 5318 5315 5313 5311 5309 5306 5304 5301 5297 5293 5289 5284 5278 5272 5267 5264 5261 5259 5258 5258 5258 5259 5260 5263 5265 5267 5269
5365 5361 5357 5354 5350 5346 5343 5339 5336 5332 5329 5325 5321 5318 5315 5312 5310 5307 5305 5303 5301 5299 5297 5294 5292 5288 5284 5279 5274 5268 5263 5259 5255 5253 5251 5250 5250 5250 5251 5252 5253 5255 5258